Roundway Revenge
Skip Navigation Links
Results
Team Results
Devizes RC Races
Details
18 November 2017
HyperLink
Page 1 of 4 (193 items)
[1]234
Pos
Bib No
Fav
Share
Photo
Print
Name
Time
Chip Time *
Category
Cat Pos
Gender
Gen Pos
Club
Pace
2824Ben BLACKWALL1:00:20.71:00:18.1Vet 405Male26  7.7 m/hr
29203Andrew WOOD1:00:24.41:00:19.9Sen19Male27CHIPPENHAM HARRIERS 7.7 m/hr
30149Mike PARTNER1:00:31.71:00:28.1Vet 406Male28CHIPPENHAM HARRIERS 7.7 m/hr
316Giles ARCHER1:00:33.51:00:28.9Vet 407Male29CHIPPENHAM HARRIERS 7.7 m/hr
32208James WYPER1:00:47.41:00:41.4Vet 408Male30  7.6 m/hr
3390Emma HINES1:00:56.21:00:50.1Vet 402Female3CHIPPENHAM HARRIERS 7.6 m/hr
34136Keith MCCARTHY1:00:59.61:00:55.3Vet 409Male31ROYAL WOOTTON BASSETT HOUNDS RC 7.6 m/hr
3525Joe BOWERBANK1:01:00.41:00:55.8Sen20Male32DEVIZES RUNNING CLUB 7.6 m/hr
36144Clive NOYES1:01:10.01:00:58.4Vet 4010Male33  7.6 m/hr
37142Pete NEWMAN1:01:19.31:01:13.7Sen21Male34STONEHENGE TRI AND ROAD CLUB 7.6 m/hr
38117Fenella LANGRIDGE1:01:31.11:01:29.2Sen2Female4SHREWTON ATHLETIC CLUB 7.6 m/hr
39128Jennifer MACMASTER1:01:40.31:01:36.8Sen3Female5  7.5 m/hr
4093Chris HOOD1:01:52.41:01:49.4Vet 4011Male35  7.5 m/hr
4145Lee CRADOCK1:02:08.81:02:03.4Vet 4012Male36CALNE SMARTT 7.5 m/hr
42198Andrew WILSON1:02:41.71:02:36.9Vet 4013Male37  7.4 m/hr
43196Steve WILLIAMSON1:03:21.21:03:18.1Vet 4014Male38CHIPPENHAM HARRIERS 7.3 m/hr
44127Henrietta MACKINNON1:03:30.01:03:27.3Vet 403Female6MARLBOROUGH RUNNING CLUB 7.3 m/hr
45159David RICHARDS1:03:49.61:03:27.5Vet 4015Male39VEGAN RUNNERS UK 7.3 m/hr
4689Jason HILLIER1:03:55.61:03:45.3Sen22Male40  7.3 m/hr
4757Adam EDWARDS1:04:13.51:04:09.7Vet 4016Male41CHIPPENHAM HARRIERS 7.2 m/hr
48190Gavin WALL1:04:28.71:04:26.0Sen23Male42  7.2 m/hr
49180Simon TAYLOR1:04:50.91:04:39.9Vet 4017Male43AVON VALLEY RUNNERS 7.2 m/hr
5064Richard FLESHER1:05:02.01:04:52.7Sen24Male44CHIPPENHAM HARRIERS 7.2 m/hr
5179Gaz HANNA1:05:12.91:04:58.0Vet 4018Male45CALNE SMARTT 7.1 m/hr
52221Martin DISNEY1:05:20.01:05:11.4Vet 4019Male46AVON VALLEY RUNNERS 7.1 m/hr
5334Pete CAMPBELL1:05:35.91:05:26.1Vet 4020Male47CHIPPENHAM HARRIERS 7.1 m/hr
5541Andy COURTNEY1:05:58.51:05:37.6Vet 4022Male49SOMER AC 7.0 m/hr
54146Charles O'BRIEN1:05:55.71:05:44.9Vet 4021Male48CHIPPENHAM HARRIERS 7.1 m/hr
56108Samantha KELLY1:05:59.81:05:50.4Vet 501Female7ROYAL WOOTTON BASSETT HOUNDS RC 7.0 m/hr
574Paul APPLEBY1:06:08.51:05:58.9Vet 504Male50ROYAL WOOTTON BASSETT HOUNDS RC 7.0 m/hr
58130Julia MADDOCKS1:06:31.41:06:19.8Vet 404Female8CHIPPENHAM HARRIERS 7.0 m/hr
59115Matt LANE1:06:37.71:06:32.6Vet 4023Male51SWINDON STRIDERS 7.0 m/hr
61207Gareth HOGG1:07:02.51:06:53.3Sen25Male52Lavington Athletics 6.9 m/hr
6029Natalie BURKE1:06:58.91:06:54.3Sen4Female9DEVIZES RUNNING CLUB 6.9 m/hr
62156Mark POWELL1:07:06.91:06:56.4Vet 505Male53CHIPPENHAM HARRIERS 6.9 m/hr
6369Anna GARDINER1:07:28.01:07:20.7Sen5Female10CHIPPENHAM HARRIERS 6.9 m/hr
64103Debbie JONES1:07:39.71:07:33.1Sen6Female11CHIPPENHAM HARRIERS 6.9 m/hr
65193Steve WATTS1:07:57.51:07:46.1Vet 60+1Male54CALNE RUNNING CLUB 6.8 m/hr
6694Chris HUNT1:08:16.71:08:09.7Vet 506Male55CORSHAM RUNNING CLUB 6.8 m/hr
68206Michael LOVIS1:08:31.11:08:13.9Sen27Male57  6.8 m/hr
67187Neil TOWERS1:08:29.51:08:22.3Sen26Male56CHIPPENHAM HARRIERS 6.8 m/hr
69162Matthew ROSE1:08:35.91:08:24.9Vet 4024Male58  6.8 m/hr
70186Neil TILEY1:08:39.91:08:28.9Vet 60+2Male59SLINN ALLSTARS 6.8 m/hr
71177Bob STREET1:08:55.11:08:47.6Vet 507Male60PEWSEY VALE RC 6.7 m/hr
7282Juliette HATT1:08:57.91:08:49.1Vet 405Female12CHIPPENHAM HARRIERS 6.7 m/hr
7353James DICKINSON1:09:04.21:08:53.7Sen28Male61  6.7 m/hr
7459Lysa FAIRHURST1:09:13.91:09:04.9Vet 406Female13CHIPPENHAM HARRIERS 6.7 m/hr
758Stephen BADENSKI1:09:34.11:09:22.4Vet 508Male62  6.7 m/hr
76118Gemma LAWTON1:09:53.71:09:39.5Sen7Female14AVON VALLEY RUNNERS 6.7 m/hr
7792Simeon HOLMES1:10:04.31:09:47.6Sen29Male63  6.6 m/hr
Page 1 of 4 (193 items)
[1]234
fb

HyperLink Copyright (c) G Vincent, 2017